IRIDIUM 156

Last updated on Tue Sep 22 2026 00:03:21 GMT+0000 (Coordinated Universal Time)

1 43576U 18061H 26263.83984288 .00000100 00000+0 28628-4 0 9990 2 43576 86.4010 16.7261 0002120 91.5537 268.5902 14.34216681427083
UTC large
Height (km)
Speed (km/s)
/
Latitude / Longitude
Inclination (degrees)
Orbital Period (minutes)
Azimuth
Elevation
Range (km)
Doppler Factor

Next 0 passes for location: London (51.5072 / 0.1276)

No passes found over London.
IRIDIUM 156